GFSFLT2_850_dewp_054.txt.gz
Dewpoint
2 2 3 3 2 1 -0 1 0 -1 0 -0 -1 -5 -14 -23 -29 -29 -25 -12 -7 -5 -5 -4 -4 -3 -3
2 1 2 2 1 -0 -0 -0 -0 -1 -2 -8 -13 -22 -26 -20 -22 -21 -13 -9 -7 -5 -5 -4 -4 -3 -3
1 1 0 -0 -1 -1 -1 -2 -2 -7 -17 -16 -21 -23 -24 -25 -17 -11 -10 -8 -7 -6 -6 -6 -5 -5 -5
-0 -1 -1 -2 -2 -6 -13 -15 -16 -16 -16 -20 -23 -21 -20 -14 -13 -11 -11 -11 -7 -6 -6 -6 -6 -6 -5
-2 -2 -4 -11 -13 -12 -12 -12 -16 -17 -17 -25 -17 -14 -14 -13 -13 -12 -12 -8 -6 -6 -6 -6 -6 -6 -5
-10 -16 -13 -11 -10 -10 -10 -12 -16 -19 -16 -18 -13 -13 -13 -12 -12 -12 -11 -10 -7 -6 -6 -6 -6 -6 -6
-15 -14 -14 -9 -9 -10 -10 -11 -15 -16 -12 -13 -12 -12 -12 -12 -11 -11 -11 -11 -11 -11 -11 -8 -7 -6 -6
-19 -18 -15 -13 -12 -13 -15 -17 -18 -14 -11 -12 -12 -12 -11 -11 -11 -11 -11 -11 -11 -11 -10 -8 -7 -7 -6
-14 -16 -18 -18 -19 -19 -20 -17 -13 -13 -12 -11 -11 -10 -11 -11 -12 -12 -12 -11 -11 -11 -11 -8 -7 -7 -6
-17 -17 -18 -19 -16 -13 -12 -12 -12 -11 -10 -10 -10 -9 -9 -11 -11 -12 -12 -11 -12 -11 -11 -11 -10 -7 -7
-18 -19 -16 -13 -12 -12 -11 -11 -11 -11 -11 -9 -10 -10 -9 -9 -11 -13 -11 -11 -12 -12 -12 -11 -11 -10 -8
-18 -13 -12 -12 -12 -11 -11 -11 -11 -10 -10 -9 -9 -9 -9 -9 -10 -12 -11 -11 -12 -13 -12 -11 -10 -10 -10
-12 -12 -11 -11 -11 -11 -11 -11 -11 -10 -10 -10 -9 -9 -9 -9 -9 -9 -9 -11 -12 -12 -12 -11 -10 -10 -10
-11 -11 -11 -10 -10 -10 -10 -10 -10 -11 -10 -10 -9 -9 -9 -9 -10 -9 -10 -9 -11 -11 -10 -10 -11 -10 -10
-11 -10 -10 -10 -10 -9 -9 -9 -9 -10 -10 -10 -9 -9 -9 -9 -9 -10 -10 -10 -10 -9 -10 -10 -10 -10 -10
-11 -10 -10 -10 -9 -9 -9 -9 -9 -10 -10 -10 -9 -9 -9 -10 -9 -10 -9 -9 -10 -9 -9 -9 -9 -9 -10
-10 -10 -10 -9 -9 -9 -9 -9 -9 -9 -9 -9 -10 -10 -10 -9 -9 -9 -9 -9 -10 -10 -10 -10 -9 -10 -9

GFSFLT2_850_dewp_057.txt.gz
Dewpoint
3 4 4 3 2 2 2 0 1 -0 -1 -1 -1 -1 -1 -2 -6 -11 -11 -9 -10 -7 -6 -4 -4 -3 -3
3 2 1 3 1 1 -0 0 -1 -1 -1 -2 -2 -4 -8 -11 -9 -12 -13 -16 -10 -5 -5 -4 -4 -3 -3
1 1 1 1 0 0 0 -1 -1 -2 -3 -5 -10 -10 -14 -18 -19 -15 -9 -7 -6 -5 -5 -5 -5 -5 -4
1 1 0 -0 -1 -1 -2 -3 -6 -11 -12 -15 -15 -18 -22 -19 -16 -13 -13 -13 -12 -8 -6 -6 -6 -5 -5
-1 -1 -2 -2 -4 -7 -10 -11 -14 -12 -15 -19 -21 -20 -15 -13 -13 -13 -13 -12 -11 -8 -6 -6 -5 -5 -5
-4 -7 -9 -9 -10 -10 -11 -10 -11 -13 -19 -22 -17 -14 -13 -12 -12 -12 -12 -11 -11 -8 -7 -6 -6 -6 -5
-16 -14 -13 -13 -12 -10 -9 -10 -12 -18 -17 -17 -13 -13 -12 -12 -11 -11 -11 -11 -11 -11 -11 -8 -6 -6 -6
-19 -16 -15 -13 -13 -13 -14 -18 -21 -21 -13 -13 -13 -12 -11 -11 -11 -12 -12 -12 -11 -11 -11 -10 -9 -7 -6
-12 -14 -16 -16 -16 -18 -20 -20 -16 -13 -12 -11 -11 -11 -12 -12 -11 -11 -12 -12 -11 -11 -12 -12 -10 -8 -7
-15 -18 -18 -18 -18 -16 -13 -12 -11 -11 -10 -10 -11 -10 -11 -12 -11 -11 -12 -13 -11 -11 -11 -12 -12 -11 -10
-22 -19 -18 -14 -12 -11 -11 -11 -11 -10 -10 -10 -11 -10 -9 -10 -12 -12 -14 -12 -11 -11 -12 -13 -12 -11 -10
-20 -15 -12 -12 -12 -11 -11 -11 -11 -11 -11 -10 -10 -10 -9 -9 -9 -13 -13 -12 -11 -11 -12 -12 -11 -11 -10
-12 -12 -12 -11 -11 -11 -10 -10 -11 -11 -11 -10 -9 -9 -8 -9 -9 -12 -11 -12 -12 -11 -11 -11 -11 -11 -11
-12 -11 -11 -11 -10 -10 -10 -10 -10 -10 -10 -10 -10 -9 -9 -9 -9 -10 -11 -10 -11 -11 -11 -11 -11 -11 -11
-11 -11 -11 -10 -10 -10 -10 -10 -9 -9 -10 -10 -10 -9 -9 -10 -9 -10 -10 -10 -10 -11 -10 -10 -11 -11 -11
-11 -11 -10 -10 -10 -10 -10 -9 -9 -9 -9 -9 -9 -10 -10 -10 -9 -10 -10 -10 -10 -10 -10 -10 -10 -11 -11
-11 -11 -11 -10 -10 -10 -9 -9 -9 -9 -9 -10 -10 -10 -11 -10 -10 -10 -10 -10 -10 -10 -11 -10 -9 -10 -10

GFSFLT2_850_dewp_060.txt.gz
Dewpoint
5 4 4 2 0 1 1 0 1 0 -1 -1 -1 -1 -1 -1 -2 -2 -2 -3 -4 -4 -4 -4 -3 -3 -3
3 3 3 3 2 2 1 0 -0 -0 -1 -1 -1 -2 -2 -2 -3 -4 -4 -5 -6 -5 -5 -4 -4 -3 -3
2 1 1 1 1 1 -0 -0 -1 -1 -1 -1 -2 -2 -3 -5 -6 -9 -9 -6 -5 -5 -5 -5 -5 -4 -4
1 1 0 0 0 -1 -1 -2 -2 -2 -2 -6 -11 -13 -14 -16 -18 -20 -19 -15 -12 -12 -9 -6 -6 -5 -5
-0 -0 -0 -1 -1 -2 -2 -3 -8 -10 -12 -14 -15 -17 -21 -20 -18 -15 -14 -13 -13 -12 -8 -5 -5 -5 -4
-2 -2 -3 -5 -7 -9 -10 -12 -12 -14 -16 -18 -19 -23 -18 -15 -13 -13 -13 -12 -12 -11 -10 -7 -5 -5 -5
-15 -13 -11 -12 -13 -13 -13 -11 -11 -12 -17 -25 -18 -14 -12 -12 -12 -12 -11 -11 -11 -11 -12 -12 -9 -6 -5
-17 -15 -15 -14 -13 -13 -12 -13 -16 -19 -20 -17 -13 -13 -12 -11 -11 -11 -11 -12 -12 -12 -12 -11 -12 -12 -8
-13 -12 -13 -13 -10 -14 -16 -17 -20 -15 -12 -12 -12 -12 -12 -12 -12 -11 -11 -11 -12 -13 -11 -11 -11 -12 -13
-15 -15 -19 -18 -16 -17 -15 -13 -12 -12 -11 -11 -11 -11 -12 -12 -11 -11 -11 -11 -13 -12 -11 -11 -11 -12 -14
-22 -22 -18 -17 -14 -12 -11 -11 -11 -11 -11 -11 -11 -11 -11 -11 -12 -12 -11 -13 -13 -12 -11 -11 -12 -12 -13
-22 -19 -14 -12 -12 -12 -11 -11 -11 -10 -10 -10 -9 -9 -9 -10 -11 -12 -11 -12 -12 -12 -12 -11 -11 -12 -12
-13 -12 -12 -11 -11 -11 -11 -10 -10 -10 -10 -10 -10 -9 -10 -10 -9 -11 -11 -12 -11 -11 -11 -11 -11 -12 -12
-12 -12 -12 -11 -11 -10 -10 -10 -10 -10 -10 -9 -9 -9 -10 -10 -10 -10 -11 -10 -11 -11 -10 -11 -11 -12 -12
-12 -12 -11 -11 -11 -10 -10 -10 -10 -10 -10 -9 -9 -9 -9 -10 -10 -10 -10 -10 -11 -11 -10 -11 -11 -12 -12
-12 -11 -11 -11 -11 -11 -10 -10 -10 -9 -9 -9 -9 -10 -10 -10 -10 -10 -10 -10 -11 -11 -10 -10 -11 -13 -12
-12 -11 -11 -11 -11 -11 -11 -10 -10 -10 -10 -10 -10 -10 -10 -10 -10 -10 -10 -10 -10 -10 -10 -10 -11 -12 -11

GFSFLT2_850_dewp_063.txt.gz
Dewpoint
5 5 4 4 3 1 1 1 1 -0 -0 -0 -0 -1 -1 -1 -1 -1 -1 -1 -1 -2 -2 -2 -2 -2 -3
4 4 3 2 2 1 -0 -0 -1 -1 -1 -1 -1 -1 -2 -2 -2 -2 -2 -2 -3 -3 -5 -6 -4 -3 -3
2 2 2 1 0 -0 -0 -1 -1 -1 -1 -1 -1 -2 -2 -3 -3 -3 -3 -4 -9 -7 -7 -6 -5 -4 -4
1 1 1 1 0 -0 -1 -1 -1 -1 -2 -2 -2 -3 -4 -5 -7 -12 -15 -17 -19 -17 -15 -12 -10 -6 -5
-0 -0 -0 -1 -1 -2 -2 -2 -3 -4 -6 -9 -11 -13 -15 -17 -20 -22 -21 -20 -16 -15 -14 -11 -5 -4 -4
-2 -2 -2 -2 -4 -5 -7 -9 -11 -13 -15 -17 -18 -20 -22 -24 -25 -23 -17 -14 -13 -13 -12 -8 -7 -6 -5
-19 -18 -16 -15 -15 -16 -14 -14 -13 -15 -17 -23 -24 -27 -22 -18 -15 -14 -13 -13 -12 -11 -11 -11 -10 -8 -8
-19 -18 -18 -19 -19 -18 -18 -18 -18 -19 -19 -23 -21 -15 -13 -13 -13 -12 -12 -11 -11 -12 -12 -13 -13 -12 -12
-14 -14 -14 -14 -14 -15 -16 -17 -20 -20 -15 -13 -13 -13 -13 -12 -12 -12 -12 -11 -11 -11 -12 -13 -14 -12 -11
-16 -16 -16 -18 -17 -15 -16 -15 -12 -12 -12 -11 -11 -11 -12 -13 -12 -11 -11 -11 -11 -11 -13 -13 -12 -11 -11
-23 -23 -21 -18 -17 -14 -12 -11 -11 -11 -11 -11 -11 -11 -11 -12 -12 -11 -11 -11 -11 -11 -12 -12 -12 -11 -12
-22 -20 -17 -13 -12 -12 -12 -11 -11 -11 -11 -10 -10 -10 -10 -10 -11 -13 -12 -12 -12 -12 -11 -11 -11 -11 -11
-17 -13 -12 -12 -12 -11 -11 -11 -11 -10 -10 -10 -10 -9 -10 -10 -10 -11 -11 -12 -12 -12 -11 -11 -11 -11 -11
-12 -12 -12 -12 -12 -11 -11 -11 -11 -10 -10 -10 -9 -9 -9 -10 -10 -10 -10 -10 -11 -11 -11 -11 -11 -11 -11
-12 -12 -12 -11 -11 -11 -11 -10 -10 -10 -10 -9 -9 -9 -9 -10 -10 -10 -10 -10 -10 -10 -11 -11 -12 -12 -12
-15 -12 -12 -11 -11 -11 -11 -11 -11 -11 -10 -10 -10 -10 -10 -10 -10 -10 -10 -10 -10 -10 -10 -10 -10 -11 -11
-19 -15 -13 -12 -12 -12 -12 -12 -12 -11 -11 -10 -10 -10 -10 -10 -10 -10 -10 -10 -10 -11 -11 -11 -11 -12 -13

GFSFLT2_850_dewp_066.txt.gz
Dewpoint
4 4 3 4 3 3 3 3 2 1 2 1 0 1 1 0 -0 -0 -1 -0 -0 0 -0 -1 -1 -1 -1
2 3 3 2 2 2 2 2 1 1 1 0 -0 -0 -0 -1 -1 -1 -1 -1 -1 -1 -1 -1 -1 -2 -3
2 2 2 1 1 1 1 1 1 0 -0 -1 -1 -1 -1 -1 -2 -2 -2 -2 -2 -2 -2 -7 -9 -6 -4
1 1 0 0 0 -0 -0 -1 -1 -1 -1 -1 -1 -1 -2 -2 -2 -2 -2 -3 -6 -14 -20 -21 -19 -14 -5
-1 -1 -1 -1 -2 -2 -2 -2 -2 -3 -3 -4 -5 -7 -8 -10 -13 -15 -16 -17 -19 -22 -21 -17 -14 -8 -5
-7 -7 -9 -9 -8 -9 -9 -10 -11 -12 -13 -15 -16 -17 -19 -21 -22 -22 -23 -23 -22 -17 -14 -9 -5 -5 -5
-25 -23 -21 -19 -16 -16 -16 -15 -16 -16 -17 -22 -21 -23 -25 -26 -23 -20 -17 -15 -13 -13 -12 -10 -9 -7 -7
-22 -20 -19 -18 -17 -17 -16 -17 -18 -20 -20 -22 -24 -19 -15 -15 -14 -13 -13 -12 -12 -11 -11 -11 -12 -13 -14
-21 -19 -17 -15 -16 -19 -21 -20 -23 -23 -19 -16 -15 -14 -14 -13 -13 -13 -12 -12 -12 -11 -11 -11 -12 -12 -14
-20 -21 -22 -21 -21 -20 -20 -20 -15 -13 -12 -12 -12 -12 -13 -13 -13 -12 -12 -11 -11 -11 -11 -11 -12 -14 -15
-23 -23 -22 -21 -20 -18 -14 -12 -12 -12 -12 -11 -11 -11 -11 -12 -13 -12 -12 -11 -11 -11 -11 -11 -11 -12 -13
-22 -21 -20 -15 -13 -12 -12 -12 -12 -11 -11 -11 -10 -10 -10 -10 -11 -13 -12 -12 -12 -12 -11 -12 -11 -11 -11
-18 -15 -13 -12 -12 -12 -12 -12 -12 -11 -11 -10 -10 -10 -10 -10 -10 -11 -10 -11 -11 -12 -12 -12 -12 -11 -11
-16 -14 -12 -12 -12 -12 -12 -12 -12 -11 -10 -10 -10 -10 -10 -10 -10 -10 -10 -10 -10 -10 -10 -10 -11 -11 -11
-19 -18 -15 -13 -12 -12 -11 -11 -11 -12 -11 -10 -10 -10 -10 -10 -10 -10 -10 -10 -10 -10 -10 -10 -10 -10 -10
-21 -20 -19 -16 -13 -12 -12 -12 -12 -12 -12 -12 -11 -10 -10 -10 -10 -10 -10 -10 -10 -10 -10 -10 -11 -11 -11
-22 -22 -21 -20 -19 -17 -17 -15 -15 -15 -14 -13 -12 -12 -10 -10 -10 -10 -10 -10 -10 -10 -10 -10 -10 -11 -11

GFSFLT2_850_dewp_069.txt.gz
Dewpoint
3 2 3 2 2 2 3 2 2 2 1 2 1 1 2 2 2 1 1 1 1 0 0 0 1 0 0
2 2 1 2 2 2 2 2 2 1 1 2 2 1 1 1 1 1 1 0 -0 -1 -1 -0 -0 -0 -1
1 0 1 1 1 1 1 1 1 1 1 1 1 0 -0 -1 -1 -1 -1 -1 -1 -1 -1 -1 -1 -1 -2
0 0 -0 -0 -0 -0 -0 -0 0 0 0 -0 -0 -1 -1 -1 -1 -1 -1 -1 -2 -2 -2 -3 -8 -16 -20
-1 -2 -2 -2 -3 -3 -3 -3 -3 -2 -2 -2 -2 -2 -3 -2 -3 -3 -3 -4 -6 -9 -14 -19 -22 -21 -16
-22 -21 -20 -18 -18 -17 -16 -16 -16 -17 -18 -17 -17 -18 -19 -20 -20 -20 -21 -21 -22 -23 -22 -20 -16 -9 -4
-25 -24 -23 -21 -21 -20 -19 -20 -20 -20 -20 -23 -23 -24 -26 -27 -27 -27 -27 -25 -21 -19 -16 -11 -7 -6 -6
-23 -22 -21 -20 -20 -19 -19 -21 -22 -22 -22 -23 -23 -19 -17 -17 -16 -16 -14 -14 -13 -13 -12 -11 -10 -11 -12
-25 -23 -21 -18 -20 -20 -21 -20 -21 -19 -16 -13 -13 -13 -13 -13 -13 -13 -13 -12 -12 -12 -12 -11 -11 -12 -12
-23 -24 -25 -24 -23 -22 -20 -19 -15 -13 -12 -12 -12 -12 -12 -12 -12 -12 -12 -12 -12 -12 -11 -11 -11 -11 -12
-25 -25 -24 -23 -22 -20 -15 -13 -12 -12 -12 -11 -11 -11 -11 -11 -12 -12 -12 -12 -12 -11 -11 -11 -11 -11 -11
-22 -23 -22 -19 -15 -13 -13 -12 -12 -12 -12 -11 -11 -10 -10 -10 -11 -12 -12 -11 -11 -12 -12 -12 -11 -11 -11
-21 -19 -16 -14 -13 -13 -13 -13 -13 -12 -11 -11 -11 -10 -10 -10 -10 -11 -11 -11 -10 -11 -11 -10 -11 -11 -12
-22 -21 -19 -16 -14 -13 -13 -12 -12 -12 -11 -11 -10 -10 -10 -10 -10 -10 -10 -10 -10 -10 -10 -10 -10 -10 -11
-23 -23 -22 -21 -19 -15 -13 -12 -12 -13 -12 -11 -11 -11 -11 -11 -11 -11 -10 -10 -10 -10 -10 -10 -10 -10 -10
-23 -23 -23 -22 -21 -20 -19 -17 -17 -16 -15 -15 -14 -14 -13 -12 -12 -11 -11 -11 -10 -10 -10 -10 -10 -10 -10
-23 -22 -22 -22 -22 -22 -21 -20 -20 -18 -17 -16 -15 -13 -12 -11 -11 -11 -11 -11 -11 -11 -11 -10 -10 -10 -9

GFSFLT2_850_dewp_072.txt.gz
Dewpoint
3 2 2 2 2 2 2 2 2 2 2 2 2 2 2 3 2 2 3 3 2 2 2 2 1 1 1
2 2 1 1 1 1 1 1 1 2 2 2 2 2 2 2 2 2 2 2 2 2 2 1 1 0 1
2 1 0 0 1 1 1 1 1 1 1 1 1 1 1 1 0 1 1 1 1 -0 -0 -0 -1 -0 -1
0 -0 -0 -1 -1 -1 -1 -1 -1 -0 -0 0 0 0 0 -0 -0 -1 -1 -1 -0 -1 -1 -1 -1 -1 -1
-4 -4 -5 -7 -9 -12 -13 -12 -12 -8 -5 -3 -3 -2 -2 -1 -1 -1 -1 -2 -2 -2 -2 -2 -3 -8 -14
-26 -22 -21 -22 -23 -23 -22 -22 -14 -20 -22 -21 -22 -20 -19 -18 -16 -15 -13 -12 -12 -12 -14 -17 -20 -23 -21
-24 -24 -22 -22 -21 -20 -20 -20 -17 -16 -25 -25 -24 -26 -26 -26 -27 -26 -26 -25 -25 -25 -25 -24 -23 -17 -8
-24 -23 -22 -22 -21 -21 -21 -21 -17 -22 -24 -22 -20 -19 -17 -17 -18 -17 -18 -17 -18 -17 -15 -12 -8 -6 -6
-26 -26 -25 -24 -24 -21 -17 -17 -12 -12 -16 -14 -13 -14 -14 -14 -14 -14 -14 -14 -14 -13 -13 -11 -8 -9 -11
-24 -25 -25 -25 -24 -23 -21 -20 -16 -9 -13 -13 -13 -12 -12 -13 -13 -13 -13 -13 -13 -13 -12 -12 -11 -11 -10
-25 -25 -25 -24 -23 -22 -18 -14 -13 -12 -12 -12 -12 -12 -10 -11 -12 -12 -12 -12 -12 -13 -12 -11 -11 -10 -11
-24 -23 -22 -21 -18 -15 -13 -13 -13 -13 -12 -12 -12 -10 -10 -10 -11 -10 -11 -11 -11 -11 -11 -11 -12 -12 -11
-22 -21 -19 -18 -15 -14 -13 -13 -13 -13 -12 -12 -11 -11 -11 -11 -11 -11 -11 -11 -10 -10 -10 -10 -10 -10 -11
-23 -22 -22 -22 -21 -19 -15 -13 -13 -13 -12 -12 -12 -11 -11 -11 -11 -11 -11 -11 -11 -10 -10 -10 -10 -10 -10
-24 -24 -23 -22 -21 -21 -21 -19 -17 -15 -13 -12 -12 -12 -13 -12 -12 -13 -12 -12 -12 -11 -10 -11 -11 -10 -10
-23 -23 -23 -22 -22 -22 -22 -21 -20 -18 -17 -15 -16 -16 -16 -14 -13 -13 -12 -11 -11 -11 -11 -11 -11 -11 -11
-24 -23 -23 -22 -22 -22 -22 -22 -21 -20 -18 -17 -15 -13 -11 -10 -10 -10 -10 -11 -11 -11 -11 -10 -11 -11 -11

GFSFLT2_850_dewp_075.txt.gz
Dewpoint
3 3 2 2 2 1 1 2 1 2 2 2 2 2 1 2 3 3 3 3 4 3 3 2 2 3 2
2 2 2 1 1 0 1 1 1 1 1 1 2 2 2 1 2 2 3 3 3 3 3 2 2 2 2
2 2 1 1 0 -0 -0 -0 0 0 1 1 1 2 1 2 1 1 1 2 2 2 2 2 1 1 1
0 -0 -1 -1 -1 -2 -2 -3 -4 -3 -2 -1 -0 -0 0 0 0 0 0 -0 -0 -0 -0 -0 -0 -1 -1
-4 -8 -8 -11 -16 -16 -18 -18 -15 -19 -18 -14 -11 -6 -3 -3 -2 -1 -1 -1 -1 -1 -1 -1 -1 -2 -2
-28 -21 -13 -19 -20 -23 -23 -24 -16 -13 -20 -24 -23 -24 -24 -24 -21 -17 -12 -9 -6 -5 -4 -4 -5 -8 -13
-26 -23 -21 -22 -22 -22 -21 -22 -21 -20 -25 -26 -20 -24 -23 -26 -30 -29 -29 -28 -27 -26 -24 -23 -23 -23 -23
-28 -26 -25 -25 -22 -21 -22 -22 -19 -13 -22 -23 -17 -19 -18 -16 -18 -17 -18 -20 -22 -25 -26 -25 -22 -19 -9
-27 -27 -27 -27 -26 -24 -22 -20 -18 -11 -16 -15 -14 -16 -15 -15 -14 -14 -14 -14 -14 -14 -14 -14 -10 -7 -7
-26 -27 -27 -27 -26 -25 -24 -22 -20 -11 -10 -12 -14 -14 -14 -12 -14 -13 -13 -14 -13 -13 -13 -12 -12 -12 -11
-25 -25 -25 -24 -24 -23 -21 -17 -14 -13 -12 -13 -13 -13 -12 -13 -14 -13 -13 -13 -13 -13 -13 -13 -12 -12 -12
-25 -24 -23 -22 -22 -19 -16 -14 -13 -13 -13 -13 -13 -12 -11 -11 -13 -12 -12 -12 -12 -12 -11 -12 -12 -12 -12
-25 -24 -24 -23 -21 -20 -19 -16 -14 -14 -13 -13 -13 -12 -12 -12 -12 -12 -12 -12 -12 -11 -10 -10 -10 -10 -11
-25 -25 -25 -25 -24 -24 -23 -22 -19 -17 -15 -13 -13 -13 -12 -12 -12 -13 -13 -12 -13 -12 -12 -11 -11 -11 -11
-25 -25 -24 -24 -24 -23 -24 -23 -23 -22 -20 -18 -18 -16 -15 -15 -16 -15 -15 -14 -13 -12 -10 -10 -11 -11 -11
-24 -24 -24 -24 -23 -23 -23 -23 -22 -20 -19 -17 -15 -16 -16 -14 -12 -11 -11 -10 -10 -10 -10 -10 -11 -11 -11
-22 -23 -23 -22 -22 -22 -21 -21 -20 -19 -18 -16 -15 -13 -11 -10 -10 -10 -10 -10 -10 -10 -11 -11 -10 -11 -11

GFSFLT2_850_dewp_078.txt.gz
Dewpoint
4 3 3 2 1 1 1 1 1 1 1 1 1 1 1 1 2 3 4 4 5 5 4 4 4 3 3
3 2 2 2 1 1 0 0 1 1 1 1 1 1 1 1 1 1 2 2 3 3 3 3 2 2 2
2 2 1 1 0 -0 -1 -1 -2 -1 -1 -0 0 1 1 1 1 1 1 1 2 2 2 2 2 2 2
0 -0 -1 -3 -4 -6 -6 -10 -14 -15 -15 -10 -4 -2 -1 -0 -0 -1 -0 0 0 0 1 1 1 0 -0
-6 -9 -16 -17 -19 -21 -23 -25 -24 -25 -19 -19 -22 -19 -17 -11 -5 -2 -2 -2 -1 -1 -0 -0 -0 -0 -1
-29 -26 -21 -20 -22 -23 -25 -26 -23 -20 -21 -22 -25 -24 -22 -24 -26 -27 -24 -17 -9 -4 -2 -2 -2 -2 -2
-29 -24 -22 -24 -23 -25 -25 -24 -24 -25 -23 -26 -25 -22 -26 -24 -26 -25 -27 -27 -27 -27 -26 -22 -19 -17 -17
-28 -26 -25 -25 -25 -26 -25 -24 -22 -20 -20 -22 -22 -20 -18 -18 -18 -16 -17 -17 -18 -20 -22 -25 -25 -24 -22
-28 -28 -28 -28 -28 -28 -29 -26 -24 -17 -18 -15 -17 -16 -16 -16 -15 -15 -15 -15 -15 -14 -14 -14 -14 -12 -9
-28 -27 -27 -27 -28 -28 -27 -25 -24 -17 -13 -13 -15 -15 -15 -15 -14 -14 -14 -14 -14 -14 -14 -13 -13 -13 -13
-26 -26 -25 -25 -25 -24 -23 -21 -17 -15 -14 -14 -14 -14 -15 -15 -15 -13 -13 -13 -13 -13 -13 -13 -13 -13 -14
-26 -26 -26 -25 -25 -22 -20 -19 -17 -16 -14 -14 -14 -14 -13 -14 -14 -14 -13 -13 -13 -12 -12 -12 -11 -11 -11
-27 -27 -27 -26 -25 -25 -25 -25 -24 -19 -16 -14 -14 -13 -13 -13 -13 -14 -15 -15 -14 -12 -12 -12 -12 -11 -11
-25 -26 -26 -27 -26 -26 -26 -25 -26 -26 -24 -22 -19 -16 -15 -15 -15 -16 -16 -16 -15 -14 -13 -13 -13 -12 -12
-23 -24 -25 -25 -25 -25 -25 -24 -24 -24 -23 -22 -20 -19 -18 -18 -16 -15 -13 -12 -11 -11 -11 -11 -11 -11 -11
-20 -21 -22 -23 -23 -23 -23 -23 -22 -21 -20 -19 -18 -17 -15 -13 -11 -11 -10 -10 -10 -10 -10 -10 -11 -11 -11
-18 -19 -19 -19 -20 -20 -20 -20 -19 -18 -17 -17 -16 -14 -12 -11 -10 -10 -10 -10 -10 -11 -10 -10 -10 -11 -11

GFSFLT2_850_dewp_081.txt.gz
Dewpoint
4 4 3 3 2 1 1 0 1 1 1 1 0 0 1 1 2 3 5 5 5 6 7 6 6 6 5
3 3 3 2 2 1 0 -0 -1 -1 -0 0 0 0 0 0 1 1 1 4 5 5 5 5 5 4 3
2 2 2 1 1 -0 -1 -2 -2 -3 -4 -3 -2 -1 0 1 0 0 1 1 1 2 3 3 3 3 3
1 0 -0 -2 -4 -7 -8 -12 -15 -19 -21 -21 -20 -13 -7 -3 -1 -1 -0 -0 0 1 1 1 2 2 2
-3 -8 -15 -17 -18 -21 -23 -23 -26 -27 -20 -20 -22 -24 -25 -24 -17 -7 -3 -1 -1 -1 -1 -1 -0 -0 -0
-30 -25 -25 -21 -20 -23 -25 -26 -25 -22 -21 -26 -28 -27 -25 -25 -28 -29 -28 -25 -13 -3 -2 -2 -2 -1 -1
-29 -26 -23 -23 -23 -25 -26 -26 -27 -25 -23 -26 -26 -24 -24 -24 -23 -22 -24 -27 -29 -29 -28 -24 -18 -14 -10
-29 -28 -27 -28 -28 -27 -27 -24 -24 -22 -20 -23 -21 -19 -18 -18 -17 -17 -16 -17 -18 -20 -21 -24 -27 -27 -26
-30 -30 -30 -30 -30 -29 -29 -27 -26 -22 -20 -16 -17 -16 -16 -16 -15 -15 -15 -15 -15 -15 -15 -15 -14 -15 -15
-27 -27 -28 -28 -28 -27 -27 -26 -25 -21 -16 -16 -16 -16 -15 -16 -14 -15 -15 -15 -15 -14 -14 -14 -14 -14 -13
-25 -26 -27 -26 -25 -25 -24 -23 -20 -17 -16 -15 -15 -15 -15 -15 -14 -14 -14 -13 -13 -13 -13 -13 -13 -13 -13
-23 -27 -28 -28 -27 -25 -24 -22 -22 -20 -18 -17 -16 -15 -15 -16 -16 -15 -14 -14 -14 -13 -13 -13 -12 -12 -12
-24 -26 -26 -26 -27 -27 -26 -26 -26 -25 -24 -22 -20 -18 -16 -17 -18 -18 -18 -17 -16 -13 -14 -13 -13 -12 -12
-20 -22 -24 -25 -26 -26 -26 -26 -26 -25 -25 -25 -24 -22 -20 -20 -19 -18 -16 -15 -14 -13 -12 -13 -13 -13 -12
-19 -20 -21 -22 -24 -24 -24 -24 -23 -23 -22 -21 -20 -19 -18 -17 -15 -14 -12 -11 -11 -11 -11 -11 -11 -11 -11
-18 -19 -20 -20 -21 -21 -21 -21 -21 -20 -20 -19 -18 -17 -15 -13 -12 -12 -11 -11 -11 -10 -10 -11 -12 -12 -11
-18 -18 -18 -18 -18 -19 -19 -19 -18 -18 -17 -16 -15 -14 -13 -11 -11 -10 -11 -11 -11 -11 -11 -11 -12 -13 -13

GFSFLT2_850_dewp_084.txt.gz
Dewpoint
5 5 4 3 3 2 1 1 -0 1 1 1 1 0 -0 1 1 3 4 5 4 4 6 7 7 7 7
4 3 3 2 2 2 1 -0 -1 -2 -2 -2 -2 -1 -2 -0 1 1 3 4 4 6 7 6 6 6 6
3 2 2 2 2 1 -0 -2 -3 -4 -8 -8 -5 -4 -3 -1 0 -0 1 1 4 5 5 5 5 6 6
2 1 -0 -1 -1 -3 -6 -9 -15 -19 -22 -23 -22 -22 -19 -10 -6 -1 -1 -1 -0 1 2 2 3 3 3
-0 -2 -6 -10 -14 -17 -20 -22 -24 -24 -25 -21 -21 -23 -25 -26 -25 -19 -6 -2 -1 -2 -1 0 0 1 1
-12 -14 -18 -21 -20 -21 -23 -26 -26 -24 -21 -24 -26 -27 -25 -25 -28 -31 -30 -28 -16 -5 -2 -2 -3 -2 -2
-27 -27 -23 -22 -23 -26 -27 -26 -27 -27 -26 -24 -26 -25 -23 -23 -24 -22 -24 -29 -31 -30 -29 -21 -9 -5 -4
-28 -26 -25 -25 -27 -27 -27 -26 -26 -25 -23 -24 -23 -20 -18 -18 -18 -18 -18 -17 -18 -20 -22 -25 -28 -29 -29
-30 -30 -30 -30 -30 -29 -29 -29 -29 -24 -21 -20 -18 -16 -16 -16 -16 -16 -16 -16 -16 -16 -16 -16 -16 -16 -16
-25 -26 -27 -27 -28 -28 -28 -28 -27 -25 -19 -16 -16 -16 -16 -16 -15 -15 -15 -15 -15 -15 -15 -15 -15 -15 -15
-23 -23 -24 -25 -25 -25 -26 -25 -24 -20 -18 -17 -16 -16 -15 -15 -15 -15 -15 -14 -14 -14 -14 -14 -14 -14 -14
-21 -23 -26 -27 -27 -27 -26 -25 -24 -23 -23 -22 -20 -17 -17 -17 -16 -16 -15 -15 -15 -15 -14 -14 -13 -13 -13
-21 -23 -24 -25 -26 -26 -27 -27 -28 -27 -27 -27 -26 -25 -23 -22 -20 -19 -18 -17 -17 -17 -15 -14 -15 -14 -13
-19 -19 -20 -20 -22 -23 -25 -26 -26 -25 -25 -24 -24 -23 -22 -21 -19 -18 -17 -15 -15 -14 -14 -13 -12 -12 -12
-18 -18 -17 -18 -19 -21 -23 -23 -23 -23 -23 -22 -21 -19 -18 -17 -16 -15 -14 -12 -11 -11 -11 -12 -11 -11 -11
-18 -17 -16 -17 -19 -20 -20 -21 -21 -21 -20 -20 -19 -18 -16 -15 -14 -13 -12 -12 -11 -11 -11 -11 -13 -13 -12
-20 -19 -17 -17 -18 -18 -18 -18 -17 -18 -18 -18 -17 -15 -14 -13 -12 -12 -12 -11 -11 -11 -11 -12 -13 -15 -13

GFSFLT2_850_dewp_090.txt.gz
Dewpoint
4 4 5 5 4 4 3 3 2 1 -1 -1 -0 0 -1 -2 -1 0 2 3 4 5 3 2 3 7 7
3 4 4 4 4 3 3 2 1 0 -1 -2 -4 -4 -5 -4 -2 -1 2 3 4 5 6 6 5 7 6
2 2 3 3 3 2 2 2 1 -1 -2 -5 -12 -18 -17 -10 -6 -1 0 2 3 4 5 6 6 7 6
2 2 2 2 2 1 1 0 -1 -4 -10 -17 -21 -24 -24 -24 -21 -10 -2 -1 2 3 4 4 5 5 6
2 2 1 1 1 -2 -2 -4 -10 -16 -21 -22 -23 -20 -21 -24 -26 -27 -19 -5 -2 0 1 3 4 4 4
1 1 1 -1 -6 -8 -12 -17 -19 -23 -25 -22 -21 -23 -25 -25 -27 -29 -29 -27 -11 -3 -2 -0 -0 0 1
-3 -8 -10 -12 -16 -18 -20 -21 -23 -24 -25 -25 -23 -23 -23 -23 -26 -25 -25 -30 -31 -29 -18 -8 -4 -4 -1
-26 -24 -23 -23 -22 -22 -23 -25 -25 -25 -24 -23 -23 -24 -22 -21 -20 -20 -19 -20 -22 -27 -31 -31 -31 -30 -23
-26 -26 -27 -28 -29 -29 -27 -28 -29 -28 -24 -22 -22 -20 -18 -17 -17 -17 -18 -18 -18 -18 -18 -18 -19 -19 -20
-24 -27 -28 -27 -28 -29 -28 -29 -29 -30 -28 -24 -20 -17 -17 -17 -16 -16 -16 -16 -17 -17 -17 -17 -17 -17 -17
-22 -21 -21 -21 -21 -23 -24 -26 -27 -28 -25 -22 -19 -19 -17 -16 -17 -16 -16 -16 -17 -17 -17 -17 -17 -16 -16
-21 -19 -19 -21 -23 -24 -25 -25 -27 -27 -28 -27 -27 -25 -23 -21 -18 -18 -18 -18 -18 -18 -18 -18 -18 -17 -17
-21 -20 -21 -23 -23 -23 -23 -24 -23 -21 -13 -15 -27 -27 -27 -26 -24 -22 -21 -20 -20 -20 -19 -19 -18 -18 -17
-20 -19 -20 -20 -21 -20 -19 -20 -18 -21 -23 -23 -24 -23 -23 -22 -21 -20 -19 -18 -17 -16 -16 -16 -15 -15 -14
-20 -19 -19 -19 -19 -18 -18 -16 -19 -21 -21 -22 -21 -21 -20 -19 -18 -17 -16 -16 -15 -15 -14 -14 -13 -13 -13
-20 -20 -19 -18 -18 -17 -15 -17 -19 -20 -20 -21 -20 -19 -18 -17 -16 -15 -14 -13 -13 -13 -13 -13 -14 -13 -13
-22 -21 -20 -20 -19 -18 -17 -16 -17 -18 -18 -18 -18 -17 -17 -15 -15 -14 -14 -13 -12 -11 -11 -11 -12 -14 -14

GFSFLT2_850_dewp_093.txt.gz
Dewpoint
4 4 3 3 4 4 4 4 3 3 2 -0 -2 -2 -2 -3 -3 -0 2 1 4 5 2 -0 0 0 5
3 3 3 3 4 3 3 3 2 2 1 -1 -3 -4 -4 -6 -6 -3 1 1 4 6 6 4 4 4 5
1 1 1 2 3 3 3 2 2 1 0 -2 -5 -12 -19 -20 -14 -6 -0 1 3 5 5 6 7 7 7
1 1 1 2 2 2 2 1 0 0 -1 -5 -15 -21 -24 -25 -25 -18 -5 -0 2 4 5 6 6 6 6
1 1 1 1 1 1 1 -1 -1 -3 -11 -18 -21 -22 -21 -22 -25 -26 -23 -7 -1 2 3 4 5 5 5
1 1 1 0 0 -1 -6 -7 -13 -20 -21 -22 -22 -21 -23 -24 -26 -28 -28 -26 -9 -2 0 1 3 4 4
0 1 -0 -2 -6 -9 -15 -18 -20 -21 -24 -24 -24 -24 -22 -22 -25 -26 -26 -29 -28 -21 -6 -3 -1 -0 -0
-20 -20 -18 -16 -19 -20 -19 -23 -25 -25 -25 -24 -24 -24 -23 -21 -20 -20 -19 -20 -24 -30 -31 -28 -21 -11 -7
-25 -26 -25 -23 -24 -24 -26 -27 -27 -28 -26 -23 -22 -22 -21 -19 -18 -18 -18 -18 -18 -18 -18 -20 -23 -26 -29
-24 -28 -29 -28 -29 -29 -27 -27 -29 -29 -27 -23 -24 -19 -18 -17 -17 -17 -16 -17 -16 -17 -17 -17 -17 -18 -17
-20 -21 -21 -21 -21 -22 -22 -24 -26 -27 -26 -24 -20 -19 -19 -18 -17 -17 -16 -16 -17 -17 -17 -17 -17 -17 -16
-20 -20 -19 -19 -19 -21 -22 -22 -23 -23 -23 -20 -22 -25 -24 -24 -22 -20 -18 -17 -18 -18 -18 -17 -18 -18 -18
-22 -20 -19 -20 -21 -20 -20 -20 -20 -19 -17 -11 -12 -21 -25 -26 -25 -24 -22 -21 -20 -20 -20 -19 -19 -19 -18
-22 -21 -19 -20 -20 -19 -19 -19 -17 -15 -17 -20 -22 -22 -22 -22 -21 -21 -20 -20 -19 -18 -18 -17 -17 -16 -16
-21 -21 -20 -19 -19 -19 -18 -17 -13 -15 -18 -18 -19 -19 -19 -19 -18 -18 -17 -17 -17 -16 -16 -16 -15 -15 -15
-20 -19 -20 -20 -19 -19 -18 -17 -15 -16 -17 -17 -17 -17 -17 -17 -16 -16 -15 -15 -14 -14 -14 -14 -14 -13 -14
-22 -22 -20 -20 -20 -20 -19 -18 -17 -15 -16 -17 -16 -15 -17 -16 -15 -15 -14 -11 -12 -13 -12 -12 -13 -12 -12

GFSFLT2_850_dewp_096.txt.gz
Dewpoint
3 2 3 3 4 3 3 3 3 3 3 2 1 -1 -3 -3 -4 -3 0 2 0 4 3 -0 -1 -0 3
3 3 3 3 3 3 3 2 2 2 2 2 1 -2 -4 -6 -7 -6 -2 1 2 5 5 4 3 2 1
2 2 2 1 1 2 3 2 2 2 1 0 -0 -4 -14 -21 -21 -16 -3 1 2 5 6 5 6 6 5
1 1 1 1 1 2 2 2 1 1 0 -0 -3 -14 -22 -25 -25 -25 -13 -1 2 4 5 6 6 7 7
1 1 1 1 1 1 1 1 0 -1 -1 -6 -16 -21 -23 -23 -24 -26 -26 -10 -0 2 4 5 6 6 6
0 0 1 1 1 1 0 -1 -3 -8 -16 -20 -21 -22 -22 -24 -26 -27 -29 -27 -10 -0 1 4 4 5 5
0 0 0 0 -0 -0 -4 -8 -11 -17 -21 -23 -25 -24 -23 -23 -25 -26 -27 -30 -28 -15 -2 -0 1 2 3
-2 -0 -2 -4 -7 -9 -12 -17 -19 -22 -24 -24 -24 -23 -24 -23 -21 -21 -22 -23 -28 -31 -27 -11 -5 -2 -1
-24 -25 -24 -22 -20 -19 -21 -21 -22 -24 -24 -23 -23 -22 -22 -21 -19 -19 -18 -19 -19 -20 -24 -28 -31 -29 -23
-25 -25 -25 -25 -26 -26 -25 -24 -25 -27 -26 -23 -23 -21 -19 -18 -18 -17 -16 -17 -17 -17 -18 -18 -19 -19 -19
-19 -21 -23 -23 -22 -25 -23 -24 -25 -26 -24 -23 -21 -21 -20 -19 -18 -18 -17 -16 -16 -16 -17 -16 -17 -17 -17
-19 -20 -20 -19 -19 -19 -20 -21 -22 -23 -23 -19 -16 -17 -22 -23 -23 -22 -20 -18 -16 -16 -17 -17 -17 -17 -17
-18 -19 -19 -18 -18 -19 -19 -20 -21 -16 -14 -12 -9 -10 -16 -21 -23 -24 -23 -22 -21 -20 -19 -19 -19 -19 -19
-20 -21 -20 -18 -19 -20 -19 -18 -17 -15 -12 -14 -17 -19 -20 -20 -20 -20 -20 -20 -19 -19 -18 -18 -17 -17 -17
-20 -20 -21 -20 -19 -20 -19 -18 -17 -14 -12 -15 -15 -16 -16 -17 -17 -17 -18 -17 -17 -17 -17 -16 -16 -16 -15
-20 -20 -20 -20 -20 -19 -19 -18 -17 -16 -13 -14 -14 -14 -14 -13 -12 -15 -15 -15 -15 -15 -14 -14 -14 -14 -14
-20 -21 -20 -20 -20 -20 -20 -19 -18 -18 -16 -15 -14 -16 -15 -12 -9 -10 -12 -14 -13 -9 -10 -11 -13 -13 -12

GFSFLT2_850_dewp_099.txt.gz
Dewpoint
3 3 3 2 3 3 4 3 3 3 3 3 2 2 1 -3 -5 -6 -4 -1 1 2 5 3 3 -1 -2
3 2 2 2 2 3 3 2 3 3 2 2 1 1 -0 -5 -12 -15 -9 -3 0 3 4 5 5 6 3
2 2 1 1 1 1 1 2 2 2 2 1 1 0 -3 -16 -23 -25 -24 -4 0 3 5 5 6 4 2
1 1 1 1 1 1 1 2 1 1 1 1 0 -2 -14 -22 -24 -24 -27 -11 -0 2 5 6 7 7 7
1 0 1 0 1 1 1 1 1 1 0 -1 -3 -14 -21 -23 -23 -26 -26 -24 -3 1 4 5 6 7 7
-0 0 0 1 1 1 1 0 -0 -5 -6 -10 -18 -22 -22 -23 -25 -26 -28 -28 -18 -1 1 4 5 5 5
-0 -0 0 0 1 0 -0 -0 -3 -9 -15 -20 -22 -24 -22 -23 -24 -24 -26 -29 -28 -16 -1 1 3 4 4
-1 -0 -0 -0 -0 -1 -2 -6 -11 -16 -20 -24 -24 -24 -23 -23 -24 -22 -22 -21 -27 -30 -23 -5 -1 -0 1
-21 -17 -11 -9 -12 -13 -14 -16 -19 -22 -24 -24 -24 -23 -22 -22 -21 -20 -19 -19 -19 -20 -28 -30 -22 -9 -4
-23 -24 -24 -23 -21 -21 -21 -21 -23 -25 -26 -23 -23 -23 -20 -19 -18 -18 -18 -17 -18 -18 -18 -19 -22 -28 -29
-21 -23 -24 -25 -25 -27 -26 -24 -24 -25 -24 -24 -22 -20 -20 -20 -20 -20 -19 -18 -17 -17 -17 -17 -18 -18 -18
-19 -18 -20 -21 -20 -20 -20 -20 -22 -22 -23 -23 -16 -12 -16 -16 -17 -19 -23 -22 -20 -18 -17 -18 -18 -18 -18
-18 -18 -19 -19 -19 -18 -18 -18 -20 -21 -16 -11 -10 -8 -11 -15 -17 -20 -21 -22 -22 -22 -21 -20 -20 -19 -19
-19 -18 -18 -19 -18 -18 -18 -18 -19 -18 -15 -12 -12 -15 -16 -16 -17 -17 -18 -19 -19 -19 -19 -19 -19 -19 -18
-21 -20 -20 -20 -19 -18 -19 -18 -17 -17 -14 -11 -13 -13 -13 -13 -13 -14 -15 -16 -16 -17 -17 -17 -16 -16 -16
-21 -20 -20 -20 -20 -19 -19 -19 -18 -17 -16 -13 -12 -13 -12 -13 -13 -12 -11 -14 -15 -15 -14 -14 -14 -14 -14
-20 -20 -20 -20 -20 -20 -20 -19 -19 -18 -17 -16 -14 -14 -13 -14 -14 -13 -10 -8 -9 -13 -14 -10 -8 -8 -9

GFSFLT2_850_dewp_102.txt.gz
Dewpoint
3 3 3 3 2 2 3 3 3 2 2 2 3 2 1 1 -2 -6 -8 -6 -3 -0 2 3 1 4 -2
3 3 3 2 2 2 2 1 1 2 2 2 2 1 1 0 -5 -17 -22 -13 -4 0 4 5 5 6 -0
3 2 2 2 1 1 1 1 1 1 2 2 1 0 0 -2 -17 -25 -27 -22 -4 2 4 6 6 5 6
1 1 1 1 1 0 1 1 1 1 1 1 0 -0 -2 -15 -23 -25 -25 -25 -6 2 4 5 6 7 6
0 1 1 0 0 0 1 0 1 1 0 0 -2 -3 -13 -20 -23 -24 -27 -26 -14 0 3 4 6 6 6
1 0 -0 0 0 0 0 1 1 -0 -2 -8 -9 -18 -22 -22 -24 -26 -27 -29 -27 -4 2 4 4 6 5
0 -0 -0 -0 0 0 -0 -0 -1 -1 -7 -15 -20 -23 -25 -24 -23 -24 -25 -27 -29 -23 -2 2 4 4 5
-3 -1 -0 -0 -0 -0 -1 -1 -3 -6 -12 -19 -22 -24 -23 -23 -24 -22 -21 -21 -25 -30 -24 -6 1 2 3
-18 -4 -2 -1 -0 -1 -5 -7 -8 -14 -19 -23 -24 -23 -23 -23 -21 -20 -20 -19 -19 -22 -30 -28 -12 -2 -0
-21 -22 -23 -22 -18 -17 -16 -16 -19 -22 -23 -23 -25 -24 -21 -18 -19 -19 -18 -18 -18 -19 -19 -22 -29 -28 -13
-21 -22 -23 -23 -22 -22 -21 -22 -23 -24 -23 -23 -24 -22 -21 -21 -22 -22 -20 -19 -18 -18 -18 -18 -19 -19 -20
-21 -20 -22 -23 -24 -24 -25 -24 -23 -22 -23 -23 -21 -16 -12 -9 -10 -12 -17 -22 -22 -19 -17 -17 -18 -18 -18
-21 -20 -19 -20 -21 -20 -20 -20 -20 -21 -21 -21 -9 -7 -8 -12 -15 -17 -17 -19 -21 -22 -22 -20 -20 -19 -18
-21 -19 -18 -18 -19 -19 -18 -18 -19 -19 -18 -12 -11 -12 -14 -14 -14 -15 -15 -16 -17 -18 -19 -20 -20 -20 -20
-20 -22 -18 -17 -19 -18 -18 -19 -18 -18 -17 -14 -11 -12 -13 -12 -12 -11 -11 -12 -14 -15 -16 -17 -17 -17 -17
-18 -20 -20 -18 -20 -19 -18 -19 -19 -18 -17 -15 -12 -11 -12 -12 -11 -13 -12 -10 -9 -12 -14 -14 -14 -14 -14
-16 -19 -20 -18 -19 -20 -20 -19 -19 -19 -18 -17 -16 -14 -13 -13 -12 -14 -13 -13 -9 -7 -8 -11 -13 -10 -8

GFSFLT2_850_dewp_105.txt.gz
Dewpoint
2 3 3 3 3 2 2 2 2 2 2 2 2 3 2 1 0 0 -7 -14 -10 -5 -1 1 1 1 -2
2 3 3 3 3 2 2 1 1 1 1 1 1 2 1 0 0 -3 -17 -25 -20 -5 2 4 4 5 5
2 1 3 2 2 2 1 1 1 1 1 1 1 1 -0 0 -1 -19 -25 -26 -22 -2 2 4 5 5 6
2 1 1 2 1 1 1 1 0 -0 0 1 1 -0 0 -2 -16 -23 -25 -26 -22 -1 3 4 6 5 5
1 1 1 0 1 1 0 -0 0 -0 0 -0 -0 -0 -3 -13 -22 -24 -26 -27 -26 -2 2 4 5 6 6
-0 0 1 0 0 -0 -0 -0 0 0 -0 -0 -3 -7 -18 -23 -24 -27 -27 -29 -29 -12 1 4 4 5 4
-0 0 1 0 -0 0 -0 -0 -0 -1 -1 -8 -16 -21 -23 -24 -25 -26 -26 -27 -30 -26 -5 0 4 4 5
-0 -2 -3 -1 -0 -0 -0 -0 -1 -1 -4 -9 -19 -22 -24 -23 -25 -25 -22 -21 -24 -30 -25 -7 1 3 4
-1 -3 -4 -1 -0 -0 -0 -1 -1 -3 -8 -15 -23 -23 -22 -23 -23 -23 -21 -20 -20 -22 -30 -27 -10 1 2
-6 -19 -19 -5 -1 -0 -1 -2 -5 -9 -17 -19 -24 -23 -23 -22 -21 -20 -19 -19 -19 -19 -20 -26 -29 -15 -5
-15 -20 -21 -21 -21 -18 -11 -13 -16 -20 -22 -22 -24 -24 -21 -20 -22 -21 -20 -19 -18 -18 -18 -18 -20 -24 -26
-17 -19 -20 -21 -22 -21 -19 -18 -21 -22 -23 -23 -23 -22 -21 -13 -12 -10 -16 -21 -22 -19 -17 -17 -17 -18 -18
-17 -18 -20 -20 -21 -22 -22 -23 -24 -23 -23 -23 -22 -14 -7 -8 -12 -14 -16 -17 -19 -21 -22 -19 -18 -18 -18
-18 -18 -18 -19 -20 -21 -21 -21 -22 -21 -21 -22 -17 -7 -9 -13 -13 -14 -14 -15 -16 -17 -19 -21 -21 -20 -20
-16 -18 -19 -18 -17 -19 -19 -19 -18 -19 -19 -19 -12 -10 -12 -13 -12 -11 -11 -10 -11 -13 -15 -16 -18 -18 -18
-15 -17 -19 -19 -17 -18 -19 -18 -18 -18 -18 -18 -15 -12 -12 -13 -12 -11 -12 -12 -10 -9 -10 -14 -14 -14 -15
-12 -15 -17 -19 -16 -17 -18 -18 -19 -19 -19 -18 -17 -14 -11 -12 -12 -12 -14 -13 -13 -12 -8 -7 -9 -13 -13

GFSFLT2_850_dewp_108.txt.gz
Dewpoint
2 1 2 2 3 3 3 2 1 2 2 2 2 1 1 2 1 0 -0 -1 -13 -22 -10 -3 0 3 1
1 1 2 3 2 2 3 2 1 1 1 1 1 0 1 1 0 -0 -0 -14 -23 -26 -4 2 4 5 4
1 1 2 2 2 2 2 2 1 1 0 0 0 0 0 -0 -0 -0 -11 -24 -25 -20 1 3 3 5 6
1 1 1 1 1 1 1 1 1 1 1 -0 -0 0 -0 -0 -1 -6 -22 -25 -26 -18 2 3 5 5 5
1 1 1 1 0 0 0 0 0 0 -0 -0 -0 -0 -0 -1 -6 -22 -24 -26 -28 -18 1 4 4 5 5
0 1 0 -0 -0 0 0 0 0 -0 -0 -1 -0 -0 -2 -7 -22 -24 -26 -26 -29 -25 0 3 4 5 5
-0 -0 -0 -1 0 1 -0 -1 -0 -0 -1 -1 -2 -13 -19 -22 -24 -25 -24 -23 -30 -29 -4 1 4 4 5
-0 -0 -0 -0 0 -0 -1 0 0 -0 -1 -1 -4 -13 -21 -23 -24 -25 -24 -23 -23 -30 -25 -7 2 4 5
-0 -0 -1 -2 -3 -1 -0 -0 -0 -1 -1 -3 -8 -19 -22 -23 -23 -24 -22 -21 -20 -23 -31 -25 -6 2 3
-1 -1 -1 -2 -4 -1 -1 -0 -1 -1 -3 -4 -13 -21 -23 -22 -22 -21 -20 -19 -19 -20 -20 -27 -27 -9 1
-1 -1 -3 -14 -14 -2 -1 -1 -1 -2 -13 -13 -19 -23 -23 -19 -20 -19 -18 -18 -18 -18 -18 -19 -21 -26 -16
-1 -1 -9 -18 -20 -15 -6 -4 -4 -9 -10 -20 -21 -23 -24 -21 -18 -13 -15 -21 -21 -21 -18 -18 -18 -19 -20
-1 -2 -12 -17 -19 -19 -19 -16 -15 -16 -16 -21 -22 -22 -22 -15 -8 -9 -11 -14 -15 -19 -21 -20 -18 -18 -18
-1 -2 -12 -16 -18 -18 -19 -18 -18 -18 -20 -21 -23 -22 -15 -8 -10 -13 -14 -14 -14 -16 -18 -20 -21 -21 -20
-2 -3 -11 -14 -17 -18 -20 -21 -22 -23 -22 -22 -22 -20 -8 -9 -12 -12 -12 -11 -10 -10 -12 -15 -17 -18 -19
-2 -3 -9 -13 -16 -16 -18 -19 -19 -20 -20 -20 -21 -18 -11 -12 -12 -11 -11 -12 -12 -11 -9 -10 -13 -14 -15
-3 -3 -5 -12 -14 -14 -15 -17 -18 -18 -19 -19 -20 -16 -13 -12 -12 -11 -10 -12 -13 -13 -12 -9 -7 -9 -13

GFSFLT2_850_dewp_111.txt.gz
Dewpoint
5 2 2 2 2 2 3 3 2 2 1 1 1 2 2 1 0 1 0 -0 -1 -9 -23 -17 -2 -0 4
2 2 2 1 2 2 3 2 1 1 1 1 1 1 0 0 0 -0 -0 -1 -7 -24 -26 -4 1 3 4
3 3 2 2 2 2 2 1 1 2 1 0 0 0 -0 -0 -0 -0 -1 -4 -22 -25 -23 0 2 3 4
3 2 2 2 2 2 2 1 1 1 1 0 0 -0 -0 -1 -0 -0 -4 -19 -25 -27 -11 2 3 4 4
4 3 2 2 2 1 1 1 1 0 0 0 0 -0 -1 -1 -1 -3 -15 -25 -28 -28 -3 1 3 5 5
4 4 3 2 2 2 1 1 1 0 -0 -0 -0 -0 -0 -1 -3 -13 -24 -26 -28 -29 -6 1 2 5 4
4 4 4 4 2 1 0 0 0 -0 -1 -0 -0 -0 -1 -9 -19 -24 -25 -25 -27 -30 -19 -0 4 4 3
3 3 3 1 1 -0 0 1 0 -0 0 -0 -1 -2 -6 -15 -21 -24 -25 -23 -22 -30 -29 -7 1 4 4
2 2 2 0 -0 0 -0 -0 -1 -0 0 -0 -1 -4 -10 -18 -22 -23 -25 -22 -21 -22 -30 -27 -6 2 4
2 1 1 -0 -0 -1 -1 -0 -0 -1 -0 -1 -2 -6 -18 -22 -22 -22 -23 -20 -19 -20 -21 -29 -26 -6 2
1 0 -0 -0 -0 -1 -2 -0 -0 -1 -2 -3 -3 -7 -17 -22 -22 -21 -19 -18 -18 -18 -19 -20 -24 -28 -6
-0 0 -0 -1 -2 -4 -5 -1 -1 -1 -2 -2 -12 -14 -20 -23 -20 -20 -19 -18 -18 -19 -19 -18 -19 -20 -26
-0 -0 -1 -1 -4 -14 -12 -3 -2 -1 -2 -3 -7 -20 -23 -23 -20 -10 -9 -11 -13 -16 -19 -21 -18 -18 -19
-0 -1 -1 -2 -5 -15 -16 -15 -9 -10 -8 -10 -13 -21 -22 -22 -15 -8 -11 -15 -13 -14 -15 -18 -20 -20 -20
-2 -2 -2 -3 -4 -13 -16 -16 -13 -14 -14 -15 -18 -22 -22 -20 -10 -12 -15 -14 -11 -10 -11 -13 -15 -17 -19
-2 -2 -3 -3 -4 -10 -14 -15 -15 -15 -16 -18 -19 -21 -21 -12 -9 -14 -15 -12 -12 -12 -10 -10 -10 -12 -15
-2 -3 -3 -4 -4 -6 -6 -8 -17 -19 -21 -21 -21 -21 -21 -12 -11 -14 -12 -11 -12 -13 -12 -12 -10 -9 -9